• In Uzbekistan
  • List of Countries
  • For 7 days
  • Water Temperature
  • Satellite Maps
  • Weather Map
  • Weather Widgets
  • user-avatar
    Login

    Hourly Weather Igls

    Today, 22 August, Tuesday

    Time Temperature Precipitation Wind Pressure Humidity
    00:00 +10°C° 0 mm 1 mps 688 mmHg 93%
    01:00 +10°C° 0 mm 1 mps 688 mmHg 92%
    02:00 +10°C° 0 mm 1 mps 688 mmHg 92%
    03:00 +10°C° 0 mm 1 mps 688 mmHg 91%
    04:00 +10°C° 0 mm 1 mps 688 mmHg 91%
    05:00 +11°C° 0 mm 1 mps 688 mmHg 86%
    06:00 +12°C° 0 mm 1 mps 688 mmHg 81%
    07:00 +14°C° 0 mm 1 mps 689 mmHg 74%
    08:00 +16°C° 0 mm 1 mps 689 mmHg 66%
    09:00 +20°C° 0 mm 1 mps 689 mmHg 59%
    10:00 +22°C° 0 mm 1 mps 689 mmHg 52%
    11:00 +23°C° 0 mm 1 mps 689 mmHg 49%
    12:00 +24°C° 0 mm 2 mps 689 mmHg 47%
    13:00 +24°C° 0 mm 2 mps 689 mmHg 49%
    14:00 +24°C° 0 mm 2 mps 688 mmHg 51%
    15:00 +23°C° 0 mm 2 mps 688 mmHg 52%
    16:00 +23°C° 0 mm 2 mps 688 mmHg 54%
    17:00 +20°C° 0 mm 2 mps 687 mmHg 65%
    18:00 +18°C° 0 mm 2 mps 687 mmHg 75%
    19:00 +16°C° 0 mm 1 mps 687 mmHg 86%
    20:00 +15°C° 0 mm 1 mps 687 mmHg 89%
    21:00 +15°C° 0 mm 1 mps 687 mmHg 92%
    22:00 +14°C° 0 mm 1 mps 687 mmHg 95%
    23:00 +13°C° 0 mm 1 mps 687 mmHg 95%

    Tomorrow, 23 August, Wednesday

    Time Temperature Precipitation Wind Pressure Humidity
    00:00 +13°C° 0 mm 1 mps 687 mmHg 95%
    01:00 +13°C° 0 mm 1 mps 686 mmHg 96%
    02:00 +12°C° 0 mm 1 mps 686 mmHg 94%
    03:00 +12°C° 0 mm 1 mps 686 mmHg 92%
    04:00 +12°C° 0 mm 1 mps 686 mmHg 90%
    05:00 +13°C° 0 mm 1 mps 686 mmHg 85%
    06:00 +15°C° 0 mm 1 mps 686 mmHg 80%
    07:00 +16°C° 0 mm 1 mps 687 mmHg 75%
    08:00 +20°C° 0 mm 1 mps 687 mmHg 65%
    09:00 +22°C° 0 mm 1 mps 688 mmHg 55%
    10:00 +25°C° 0 mm 1 mps 688 mmHg 45%
    11:00 +25°C° 0.1 mm 1 mps 688 mmHg 44%
    12:00 +26°C° 0.1 mm 2 mps 688 mmHg 43%
    13:00 +26°C° 0.1 mm 2 mps 688 mmHg 42%
    14:00 +26°C° 0.2 mm 2 mps 688 mmHg 43%
    15:00 +26°C° 0.2 mm 2 mps 687 mmHg 44%
    16:00 +26°C° 0.2 mm 2 mps 687 mmHg 45%
    17:00 +24°C° 0.3 mm 2 mps 687 mmHg 56%
    18:00 +21°C° 0.3 mm 1 mps 687 mmHg 68%
    19:00 +19°C° 0.3 mm 1 mps 686 mmHg 79%
    20:00 +18°C° 0 mm 1 mps 687 mmHg 81%
    21:00 +16°C° 0 mm 1 mps 687 mmHg 82%
    22:00 +15°C° 0 mm 1 mps 687 mmHg 83%
    23:00 +15°C° 0 mm 1 mps 687 mmHg 81%

    Day after tomorrow, 24 August, Thursday

    Time Temperature Precipitation Wind Pressure Humidity
    00:00 +15°C° 0 mm 1 mps 687 mmHg 79%
    01:00 +14°C° 0 mm 1 mps 687 mmHg 77%
    02:00 +14°C° 0 mm 1 mps 687 mmHg 76%
    03:00 +14°C° 0 mm 1 mps 686 mmHg 74%
    04:00 +14°C° 0 mm 1 mps 686 mmHg 73%
    05:00 +16°C° 0 mm 1 mps 687 mmHg 70%
    06:00 +18°C° 0 mm 1 mps 687 mmHg 67%
    07:00 +20°C° 0 mm 1 mps 688 mmHg 64%
    08:00 +22°C° 0 mm 1 mps 688 mmHg 57%
    09:00 +24°C° 0 mm 1 mps 689 mmHg 51%
    10:00 +27°C° 0 mm 1 mps 689 mmHg 44%
    11:00 +27°C° 0 mm 1 mps 689 mmHg 42%
    12:00 +28°C° 0 mm 1 mps 689 mmHg 40%
    13:00 +29°C° 0 mm 1 mps 689 mmHg 39%
    14:00 +28°C° 0.5 mm 1 mps 688 mmHg 46%
    15:00 +27°C° 0.5 mm 1 mps 688 mmHg 54%
    16:00 +26°C° 0.5 mm 1 mps 688 mmHg 61%
    17:00 +24°C° 1.8 mm 1 mps 688 mmHg 70%
    18:00 +22°C° 1.8 mm 1 mps 688 mmHg 80%
    19:00 +20°C° 1.8 mm 1 mps 688 mmHg 89%
    20:00 +19°C° 0.2 mm 1 mps 688 mmHg 89%
    21:00 +18°C° 0.2 mm 1 mps 688 mmHg 90%
    22:00 +18°C° 0.2 mm 1 mps 688 mmHg 90%
    23:00 +16°C° 0 mm 2 mps 688 mmHg 90%

    25 August, Friday

    Time Temperature Precipitation Wind Pressure Humidity
    00:00 +16°C° 0 mm 2 mps 688 mmHg 89%
    01:00 +15°C° 0 mm 2 mps 688 mmHg 89%
    02:00 +15°C° 0 mm 2 mps 687 mmHg 88%
    03:00 +15°C° 0 mm 2 mps 687 mmHg 87%
    04:00 +14°C° 0 mm 2 mps 687 mmHg 87%
    05:00 +16°C° 0 mm 2 mps 687 mmHg 84%
    06:00 +18°C° 0 mm 1 mps 688 mmHg 80%
    07:00 +19°C° 0 mm 1 mps 688 mmHg 77%
    08:00 +22°C° 0 mm 1 mps 689 mmHg 66%
    09:00 +25°C° 0 mm 1 mps 689 mmHg 55%
    10:00 +25°C° 0 mm 0 mps 689 mmHg 43%
    11:00 +28°C° 0 mm 1 mps 689 mmHg 41%
    12:00 +29°C° 0 mm 1 mps 689 mmHg 38%
    13:00 +30°C° 0 mm 1 mps 689 mmHg 36%
    14:00 +29°C° 0 mm 1 mps 689 mmHg 40%
    15:00 +29°C° 0 mm 1 mps 689 mmHg 43%
    16:00 +28°C° 0 mm 1 mps 688 mmHg 47%
    17:00 +26°C° 0.4 mm 1 mps 688 mmHg 58%
    18:00 +23°C° 0.4 mm 1 mps 688 mmHg 70%
    19:00 +19°C° 0.4 mm 0 mps 687 mmHg 82%
    20:00 +21°C° 0.3 mm 1 mps 688 mmHg 82%
    21:00 +20°C° 0.3 mm 1 mps 688 mmHg 82%
    22:00 +19°C° 0.3 mm 2 mps 688 mmHg 83%
    23:00 +18°C° 0.1 mm 2 mps 688 mmHg 82%

    26 August, Saturday

    Time Temperature Precipitation Wind Pressure Humidity
    00:00 +18°C° 0.1 mm 2 mps 688 mmHg 81%
    01:00 +18°C° 0.1 mm 2 mps 688 mmHg 81%
    02:00 +18°C° 0 mm 2 mps 687 mmHg 80%
    03:00 +18°C° 0 mm 2 mps 687 mmHg 79%
    04:00 +19°C° 0 mm 1 mps 687 mmHg 78%
    05:00 +19°C° 0 mm 1 mps 687 mmHg 76%
    06:00 +20°C° 0 mm 1 mps 687 mmHg 74%
    07:00 +21°C° 0 mm 1 mps 688 mmHg 71%
    08:00 +24°C° 0 mm 1 mps 688 mmHg 63%
    09:00 +26°C° 0 mm 1 mps 688 mmHg 54%
    10:00 +28°C° 0 mm 1 mps 689 mmHg 45%
    11:00 +29°C° 0.1 mm 1 mps 689 mmHg 43%
    12:00 +30°C° 0.1 mm 1 mps 688 mmHg 41%
    13:00 +30°C° 0.1 mm 1 mps 688 mmHg 39%
    14:00 +30°C° 0.1 mm 1 mps 688 mmHg 41%
    15:00 +30°C° 0.1 mm 1 mps 688 mmHg 43%
    16:00 +29°C° 0.1 mm 2 mps 688 mmHg 45%
    17:00 +27°C° 0.2 mm 1 mps 687 mmHg 55%
    18:00 +25°C° 0.2 mm 1 mps 687 mmHg 65%
    19:00 +22°C° 0.2 mm 1 mps 687 mmHg 75%
    20:00 +22°C° 0.4 mm 1 mps 687 mmHg 76%
    21:00 +21°C° 0.4 mm 1 mps 687 mmHg 76%
    22:00 +19°C° 0.4 mm 2 mps 687 mmHg 77%
    23:00 +19°C° 0.1 mm 2 mps 687 mmHg 76%

    27 August, Sunday

    Time Temperature Precipitation Wind Pressure Humidity
    00:00 +18°C° 0.1 mm 2 mps 687 mmHg 76%
    01:00 +18°C° 0.1 mm 2 mps 686 mmHg 75%
    02:00 +18°C° 0 mm 2 mps 686 mmHg 75%
    03:00 +18°C° 0 mm 1 mps 686 mmHg 74%
    04:00 +18°C° 0 mm 1 mps 686 mmHg 73%
    05:00 +19°C° 0 mm 1 mps 686 mmHg 71%
    06:00 +20°C° 0 mm 1 mps 687 mmHg 69%
    07:00 +21°C° 0 mm 1 mps 687 mmHg 67%
    08:00 +24°C° 0 mm 1 mps 687 mmHg 59%
    09:00 +26°C° 0 mm 1 mps 688 mmHg 51%
    10:00 +28°C° 0 mm 1 mps 688 mmHg 43%
    11:00 +29°C° 0 mm 1 mps 688 mmHg 41%
    12:00 +30°C° 0 mm 1 mps 688 mmHg 40%
    13:00 +30°C° 0 mm 1 mps 688 mmHg 38%
    14:00 +30°C° 0.2 mm 1 mps 687 mmHg 41%
    15:00 +29°C° 0.2 mm 1 mps 687 mmHg 44%
    16:00 +29°C° 0.2 mm 1 mps 687 mmHg 47%
    17:00 +26°C° 0.6 mm 1 mps 686 mmHg 58%
    18:00 +24°C° 0.6 mm 1 mps 686 mmHg 69%
    19:00 +20°C° 0.6 mm 0 mps 686 mmHg 80%
    20:00 +21°C° 0.9 mm 1 mps 686 mmHg 81%
    21:00 +21°C° 0.9 mm 1 mps 686 mmHg 83%
    22:00 +21°C° 0.9 mm 1 mps 686 mmHg 84%
    23:00 +20°C° 0.2 mm 1 mps 686 mmHg 85%
    Show more